Flag for U.S.A. Weather past 2 weeks in Salem, Oregon, U.S.A.

Now
60 °F

Mostly cloudy.


Feels Like: 60 °F
Forecast: 54 / 61 °F
Wind: 5 mph from West

Location: McNary Field

Current Time: Oct 20, 2014 at 3:52:03 AM

Latest Report: Oct 20, 2014 at 2:56 AM


Visibility: 10 mi

Pressure: 29.74 "Hg

Humidity: 90%

Dew point: 57 °F

Location of SalemLocation

Historic Weather in Salem — Graph

°F

Salem temperature yesterday

Maximum temperature yesterday: 74 °F (at 2:56 PM)
Minimum temperature yesterday: 54 °F (at 1:58 AM)
Average temperature yesterday: 62 °F

Past Weeks' High & Low Weather Summary

 TemperatureHumidityPressure
High86 °F (Oct 5, 4:56 PM)97% (Oct 12, 4:56 AM)30.29 "Hg (Oct 12, 4:56 AM)
Low45 °F (Oct 13, 2:56 AM)31% (Oct 8, 4:56 PM)29.53 "Hg (Oct 15, 12:56 AM)
Average61 °F75%29.93 "Hg
* Reported Oct 5 2:56 AM — Oct 20 2:56 AM, Salem, Weather by CustomWeather, © 2014

Note: Actual official high and low records may vary slightly from our data, if they occured in-between our weather recording intervals... More about our weather records

Advertising

Salem weather history for previous 24 hours

 ConditionsComfort  
Time TempWeatherWind HumidityBarometerVisibility
2:56 AM
Oct 20
60 °FMostly cloudy.5 mph90%29.74 "Hg10 mi
1:56 AM60 °FLight rain. Overcast.No wind90%29.72 "Hg10 mi
12:56 AM61 °FLight rain. Mostly cloudy.6 mph83%29.72 "Hg10 mi
11:56 PM
Oct 19
62 °FOvercast.3 mph78%29.72 "Hg10 mi
10:56 PM61 °FOvercast.5 mph81%29.73 "Hg10 mi
9:56 PM59 °FPassing clouds.6 mph84%29.72 "Hg10 mi
7:56 PM65 °FClear.5 mph70%29.71 "Hg10 mi
6:56 PM66 °FSunny.3 mph73%29.70 "Hg10 mi
5:56 PM72 °FScattered clouds.3 mph57%29.69 "Hg10 mi
4:56 PM74 °FScattered clouds.6 mph52%29.70 "Hg10 mi
3:56 PM74 °FSunny.7 mph53%29.71 "Hg10 mi
2:56 PM74 °FSunny.8 mph53%29.72 "Hg10 mi
1:56 PM72 °FScattered clouds.N/A59%29.74 "Hg10 mi
12:56 PM70 °FScattered clouds.5 mph64%29.76 "Hg10 mi
11:56 AM67 °FSunny.6 mph71%29.78 "Hg10 mi
10:56 AM64 °FBroken clouds.6 mph78%29.78 "Hg10 mi
9:56 AM61 °FPassing clouds.5 mph87%29.78 "Hg10 mi
8:56 AM58 °FPartly sunny.6 mph93%29.79 "Hg9 mi
7:56 AM57 °FPassing clouds.3 mph93%29.78 "Hg9 mi
6:56 AM58 °FLow clouds.3 mph93%29.78 "Hg10 mi
5:56 AM59 °FLow clouds.No wind93%29.78 "Hg10 mi
4:56 AM57 °FMostly cloudy.3 mph96%29.78 "Hg9 mi
3:56 AM56 °FMostly cloudy.5 mph97%29.78 "Hg7 mi
3:04 AM54 °FFog.5 mph97%29.79 "Hg1 mi
Weather by CustomWeather, © 2014

See weather overviewHow to use our weather pages